EFW8NM EGKK-LPMA

Flight info

Callsign EFW8NM
Flight time 3h 21m
Altitude 33000
Route NOVMA1X NOVMA L620 SAM M195 LORKU DCT EBOMO DCT COQUE DCT KORUL DCT DEMOS DCT ASMAR DCT VERAM DCT TELMU DCT LIDRO LIDRO1P
Aircraft A321/M-SDE3FGIJ1KRWXY/SB1

Departure

Time 2026-05-04 10:08
Airport London Gatwick Airport (EGKK)

Arrival

Time 2026-05-04 13:29
Airport Cristiano Ronaldo International Airport (LPMA)
Time Latitude Longitude Altitude Speed Heading
2026-05-04 08:46 51.15869 -0.16911 216 ft 0 kts 128°
2026-05-04 09:37 51.15876 -0.16925 203 ft 4 kts 129°
2026-05-04 09:38 51.15893 -0.16958 207 ft 4 kts 129°
2026-05-04 09:38 51.15907 -0.16985 216 ft 4 kts 131°
2026-05-04 09:38 51.15926 -0.17008 214 ft 4 kts 177°
2026-05-04 09:38 51.15943 -0.16995 203 ft 4 kts 236°
2026-05-04 09:39 51.15954 -0.16971 213 ft 0 kts 236°
2026-05-04 09:51 51.15953 -0.16971 215 ft 0 kts 236°
2026-05-04 09:51 51.15948 -0.16983 214 ft 5 kts 232°
2026-05-04 09:51 51.15914 -0.17035 210 ft 7 kts 219°
2026-05-04 09:52 51.15869 -0.17072 209 ft 7 kts 196°
2026-05-04 09:52 51.15823 -0.17107 208 ft 8 kts 229°
2026-05-04 09:52 51.15805 -0.17186 210 ft 8 kts 258°
2026-05-04 09:52 51.15793 -0.17277 208 ft 10 kts 258°
2026-05-04 09:53 51.15775 -0.17405 213 ft 12 kts 257°
2026-05-04 09:53 51.15757 -0.17540 208 ft 13 kts 257°
2026-05-04 09:53 51.15738 -0.17678 209 ft 13 kts 257°
2026-05-04 09:53 51.15720 -0.17808 213 ft 11 kts 257°
2026-05-04 09:54 51.15702 -0.17934 213 ft 12 kts 257°
2026-05-04 09:54 51.15685 -0.18058 210 ft 2 kts 257°
2026-05-04 09:54 51.15682 -0.18079 203 ft 2 kts 257°
2026-05-04 09:54 51.15678 -0.18114 203 ft 6 kts 257°
2026-05-04 09:55 51.15668 -0.18182 208 ft 7 kts 257°
2026-05-04 09:55 51.15658 -0.18256 208 ft 7 kts 257°
2026-05-04 09:55 51.15647 -0.18327 209 ft 6 kts 252°
2026-05-04 09:55 51.15615 -0.18352 208 ft 5 kts 180°
2026-05-04 09:56 51.15577 -0.18342 206 ft 6 kts 171°
2026-05-04 09:56 51.15536 -0.18328 203 ft 6 kts 166°
2026-05-04 09:56 51.15491 -0.18312 207 ft 7 kts 167°
2026-05-04 09:56 51.15443 -0.18295 212 ft 7 kts 167°
2026-05-04 09:57 51.15391 -0.18277 203 ft 9 kts 168°
2026-05-04 09:57 51.15309 -0.18249 210 ft 13 kts 167°
2026-05-04 09:57 51.15229 -0.18221 204 ft 11 kts 168°
2026-05-04 09:57 51.15189 -0.18297 211 ft 10 kts 262°
2026-05-04 09:58 51.15174 -0.18412 206 ft 11 kts 257°
2026-05-04 09:58 51.15157 -0.18535 208 ft 13 kts 258°
2026-05-04 09:58 51.15136 -0.18691 203 ft 15 kts 257°
2026-05-04 10:00 51.14978 -0.19837 207 ft 16 kts 257°
2026-05-04 10:00 51.14954 -0.20012 213 ft 16 kts 257°
2026-05-04 10:02 51.14812 -0.20663 214 ft 0 kts 206°
2026-05-04 10:04 51.14700 -0.21185 204 ft 9 kts 258°
2026-05-04 10:04 51.14697 -0.21212 212 ft 0 kts 258°
2026-05-04 10:05 51.14697 -0.21213 211 ft 1 kts 258°
2026-05-04 10:05 51.14689 -0.21267 208 ft 9 kts 258°
2026-05-04 10:06 51.14646 -0.21334 210 ft 10 kts 187°
2026-05-04 10:06 51.14580 -0.21311 212 ft 10 kts 161°
2026-05-04 10:06 51.14532 -0.21252 206 ft 7 kts 124°
2026-05-04 10:08 51.14834 -0.18882 207 ft 157 kts 78°
2026-05-04 10:08 51.15091 -0.17015 583 ft 176 kts 76°
2026-05-04 10:08 51.15357 -0.15105 1335 ft 178 kts 77°
2026-05-04 10:08 51.15636 -0.13058 1652 ft 200 kts 77°
2026-05-04 10:09 51.15961 -0.10778 1814 ft 220 kts 77°
2026-05-04 10:09 51.16293 -0.08349 2245 ft 226 kts 76°
2026-05-04 10:09 51.16991 -0.06150 2812 ft 226 kts 45°
2026-05-04 10:09 51.18347 -0.05024 2989 ft 227 kts
2026-05-04 10:10 51.19913 -0.05348 3455 ft 228 kts 346°
2026-05-04 10:10 51.21411 -0.06223 4024 ft 229 kts 327°
2026-05-04 10:10 51.22478 -0.08126 4433 ft 237 kts 295°
2026-05-04 10:10 51.22742 -0.10806 4540 ft 259 kts 262°
2026-05-04 10:11 51.22426 -0.13696 4970 ft 269 kts 258°
2026-05-04 10:11 51.22064 -0.16638 5598 ft 271 kts 258°
2026-05-04 10:11 51.21698 -0.19558 6265 ft 273 kts 258°
2026-05-04 10:11 51.21325 -0.22573 6921 ft 274 kts 257°
2026-05-04 10:12 51.20967 -0.25530 7538 ft 276 kts 258°
2026-05-04 10:12 51.20611 -0.28542 8172 ft 277 kts 258°
2026-05-04 10:12 51.20256 -0.31574 8810 ft 280 kts 258°
2026-05-04 10:12 51.19901 -0.34631 9421 ft 282 kts 258°
2026-05-04 10:13 51.19524 -0.37709 10043 ft 283 kts 257°
2026-05-04 10:13 51.19123 -0.40796 10584 ft 285 kts 257°
2026-05-04 10:13 51.18708 -0.43902 11112 ft 288 kts 256°
2026-05-04 10:13 51.18288 -0.47034 11643 ft 290 kts 256°
2026-05-04 10:14 51.17867 -0.50189 12180 ft 292 kts 256°
2026-05-04 10:14 51.17403 -0.53353 12709 ft 294 kts 250°
2026-05-04 10:16 51.10928 -0.77734 14313 ft 371 kts 246°
2026-05-04 10:16 51.09912 -0.81530 14753 ft 374 kts 246°
2026-05-04 10:16 51.08891 -0.85343 15205 ft 376 kts 245°
2026-05-04 10:16 51.07862 -0.89176 15647 ft 378 kts 245°
2026-05-04 10:17 51.06825 -0.93024 16092 ft 380 kts 245°
2026-05-04 10:17 51.05780 -0.96901 16526 ft 383 kts 245°
2026-05-04 10:19 50.98239 -1.24598 19204 ft 397 kts 245°
2026-05-04 10:19 50.97125 -1.28622 19547 ft 399 kts 243°
2026-05-04 10:19 50.95722 -1.32405 19883 ft 399 kts 233°
2026-05-04 10:19 50.93909 -1.35728 20227 ft 399 kts 223°
2026-05-04 10:20 50.91744 -1.38482 20571 ft 400 kts 213°
2026-05-04 10:20 50.89407 -1.40907 20915 ft 402 kts 213°
2026-05-04 10:20 50.87065 -1.43330 21307 ft 403 kts 212°
2026-05-04 10:20 50.84717 -1.45761 21658 ft 405 kts 212°
2026-05-04 10:21 50.82356 -1.48204 21989 ft 406 kts 212°
2026-05-04 10:21 50.79983 -1.50663 22323 ft 408 kts 212°
2026-05-04 10:21 50.77605 -1.53126 22640 ft 410 kts 212°
2026-05-04 10:21 50.75215 -1.55603 22975 ft 412 kts 212°
2026-05-04 10:22 50.70405 -1.60584 23615 ft 416 kts 212°
2026-05-04 10:22 50.67977 -1.63089 23895 ft 417 kts 212°
2026-05-04 10:22 50.66370 -1.64743 24080 ft 418 kts 212°
2026-05-04 10:23 50.63109 -1.68092 24477 ft 419 kts 212°
2026-05-04 10:23 50.61487 -1.69755 24630 ft 420 kts 212°
2026-05-04 10:25 50.44207 -1.87415 26643 ft 426 kts 212°
2026-05-04 10:25 50.41721 -1.89951 26898 ft 427 kts 212°
2026-05-04 10:25 50.39223 -1.92485 27160 ft 428 kts 211°
2026-05-04 10:25 50.36725 -1.95014 27414 ft 428 kts 211°
2026-05-04 10:26 50.34223 -1.97546 27652 ft 429 kts 211°
2026-05-04 10:26 50.31714 -2.00080 27881 ft 430 kts 211°
2026-05-04 10:26 50.29196 -2.02619 28087 ft 430 kts 211°
2026-05-04 10:26 50.26687 -2.05148 28363 ft 429 kts 211°
2026-05-04 10:27 50.24180 -2.07676 28671 ft 428 kts 211°
2026-05-04 10:27 50.21675 -2.10167 28978 ft 426 kts 211°
2026-05-04 10:27 50.19169 -2.12622 29283 ft 424 kts 210°
2026-05-04 10:27 50.16667 -2.15050 29590 ft 423 kts 210°
2026-05-04 10:28 50.14174 -2.17453 29946 ft 420 kts 210°
2026-05-04 10:28 50.11696 -2.19844 30235 ft 418 kts 210°
2026-05-04 10:28 50.09227 -2.22233 30447 ft 418 kts 210°
2026-05-04 10:28 50.06759 -2.24621 30626 ft 418 kts 210°
2026-05-04 10:29 50.04285 -2.27011 30817 ft 418 kts 210°
2026-05-04 10:29 50.01813 -2.29402 30998 ft 419 kts 210°
2026-05-04 10:29 49.99332 -2.31801 31124 ft 421 kts 210°
2026-05-04 10:29 49.96840 -2.34206 31263 ft 422 kts 210°
2026-05-04 10:30 49.94341 -2.36615 31414 ft 423 kts 210°
2026-05-04 10:30 49.91845 -2.39019 31610 ft 422 kts 210°
2026-05-04 10:30 49.89345 -2.41425 31792 ft 422 kts 210°
2026-05-04 10:30 49.86846 -2.43830 31962 ft 423 kts 210°
2026-05-04 10:31 49.84349 -2.46234 32121 ft 423 kts 210°
2026-05-04 10:31 49.81846 -2.48636 32294 ft 423 kts 210°
2026-05-04 10:32 49.66775 -2.63014 33026 ft 425 kts 210°
2026-05-04 10:33 49.61782 -2.67765 33028 ft 424 kts 210°
2026-05-04 10:33 49.56748 -2.72552 33024 ft 426 kts 210°
2026-05-04 10:34 49.51691 -2.77340 33021 ft 427 kts 210°
2026-05-04 10:34 49.46628 -2.82112 33016 ft 427 kts 210°
2026-05-04 10:35 49.41557 -2.86873 33027 ft 427 kts 210°
2026-05-04 10:35 49.36480 -2.91631 33028 ft 428 kts 210°
2026-05-04 10:36 49.31403 -2.96392 33034 ft 428 kts 210°
2026-05-04 10:36 49.26322 -3.01148 33030 ft 428 kts 210°
2026-05-04 10:37 49.21233 -3.05890 33035 ft 428 kts 210°
2026-05-04 10:37 49.16143 -3.10619 33043 ft 429 kts 210°
2026-05-04 10:39 48.98251 -3.27171 33034 ft 430 kts 210°
2026-05-04 10:40 48.93125 -3.31881 33049 ft 430 kts 210°
2026-05-04 10:40 48.88006 -3.36581 33055 ft 430 kts 210°
2026-05-04 10:41 48.82883 -3.41277 33058 ft 430 kts 209°
2026-05-04 10:41 48.77759 -3.45949 33046 ft 430 kts 209°
2026-05-04 10:42 48.72625 -3.50627 33058 ft 431 kts 209°
2026-05-04 10:42 48.67483 -3.55292 33044 ft 431 kts 209°
2026-05-04 10:43 48.62330 -3.59955 33036 ft 432 kts 209°
2026-05-04 10:45 48.41695 -3.78554 33009 ft 432 kts 209°
2026-05-04 10:45 48.36534 -3.83186 33013 ft 432 kts 210°
2026-05-04 10:46 48.31361 -3.87813 33021 ft 433 kts 209°
2026-05-04 10:46 48.26179 -3.92415 33006 ft 433 kts 209°
2026-05-04 10:47 48.20985 -3.97029 33000 ft 434 kts 209°
2026-05-04 10:47 48.15798 -4.01627 33000 ft 434 kts 209°
2026-05-04 10:49 47.94990 -4.19986 33016 ft 434 kts 209°
2026-05-04 10:50 47.89777 -4.24549 33038 ft 434 kts 210°
2026-05-04 10:52 47.69132 -4.43263 33012 ft 436 kts 211°
2026-05-04 10:52 47.63996 -4.48027 33014 ft 436 kts 211°
2026-05-04 10:54 47.43391 -4.66919 33020 ft 435 kts 211°
2026-05-04 10:56 47.22804 -4.85638 33023 ft 434 kts 211°
2026-05-04 10:57 47.17655 -4.90290 33024 ft 434 kts 211°
2026-05-04 10:57 47.12510 -4.94932 33045 ft 434 kts 211°
2026-05-04 10:58 47.07341 -4.99503 33029 ft 434 kts 205°
2026-05-04 10:58 47.04506 -5.00974 33021 ft 433 kts 194°
2026-05-04 10:58 47.01584 -5.02049 33024 ft 433 kts 194°
2026-05-04 10:59 46.95739 -5.04171 33022 ft 433 kts 194°
2026-05-04 10:59 46.89885 -5.06275 33025 ft 433 kts 194°
2026-05-04 11:00 46.84029 -5.08371 33019 ft 433 kts 194°
2026-05-04 11:02 46.60887 -5.16648 33018 ft 433 kts 194°
2026-05-04 11:05 46.16028 -5.26897 33019 ft 437 kts 179°
2026-05-04 11:06 46.13024 -5.27328 33003 ft 435 kts 195°
2026-05-04 11:06 46.10111 -5.28502 33000 ft 436 kts 196°
2026-05-04 11:06 46.04249 -5.30858 32991 ft 438 kts 195°
2026-05-04 11:10 45.62841 -5.46934 33037 ft 441 kts 195°
2026-05-04 11:12 45.39042 -5.56072 33036 ft 444 kts 195°
2026-05-04 11:12 45.33078 -5.58340 33041 ft 444 kts 195°
2026-05-04 11:13 45.27110 -5.60604 33045 ft 444 kts 195°
2026-05-04 11:13 45.21183 -5.62859 33043 ft 444 kts 196°
2026-05-04 11:14 45.15660 -5.64965 33045 ft 444 kts 196°
2026-05-04 11:16 44.91778 -5.73981 33029 ft 438 kts 196°
2026-05-04 11:16 44.85939 -5.76174 33035 ft 432 kts 196°
2026-05-04 11:17 44.80128 -5.78358 33035 ft 432 kts 196°
2026-05-04 11:19 44.60820 -5.88950 33041 ft 428 kts 217°
2026-05-04 11:19 44.58429 -5.91447 33042 ft 429 kts 217°
2026-05-04 11:19 44.53631 -5.96421 33040 ft 429 kts 217°
2026-05-04 11:20 44.48827 -6.01385 33048 ft 429 kts 217°
2026-05-04 11:20 44.44027 -6.06348 33047 ft 429 kts 217°
2026-05-04 11:22 44.24788 -6.26148 33053 ft 429 kts 217°
2026-05-04 11:23 44.19966 -6.31068 33059 ft 429 kts 217°
2026-05-04 11:25 44.03143 -6.48214 33064 ft 429 kts 217°
2026-05-04 11:25 43.98313 -6.53099 33062 ft 429 kts 217°
2026-05-04 11:27 43.76587 -6.75016 33059 ft 429 kts 217°
2026-05-04 11:28 43.71757 -6.79853 33064 ft 429 kts 217°
2026-05-04 11:28 43.66933 -6.84685 33080 ft 428 kts 217°
2026-05-04 11:29 43.62096 -6.89510 33040 ft 429 kts 218°
2026-05-04 11:29 43.57248 -6.94330 33049 ft 429 kts 217°
2026-05-04 11:33 43.23324 -7.27853 33074 ft 429 kts 218°
2026-05-04 11:33 43.18467 -7.32622 33050 ft 429 kts 218°
2026-05-04 11:34 43.13613 -7.37379 33076 ft 429 kts 218°
2026-05-04 11:34 43.08753 -7.42131 33066 ft 429 kts 218°
2026-05-04 11:35 43.03894 -7.46866 33077 ft 429 kts 218°
2026-05-04 11:35 42.99028 -7.51580 33069 ft 429 kts 218°
2026-05-04 11:36 42.94166 -7.56298 33052 ft 429 kts 218°
2026-05-04 11:36 42.89308 -7.61012 33085 ft 429 kts 218°
2026-05-04 11:37 42.84449 -7.65716 33070 ft 429 kts 218°
2026-05-04 11:37 42.79579 -7.70413 33074 ft 429 kts 218°
2026-05-04 11:38 42.74710 -7.75097 33050 ft 428 kts 219°
2026-05-04 11:38 42.69847 -7.79775 33063 ft 428 kts 219°
2026-05-04 11:39 42.65804 -7.83652 33074 ft 428 kts 219°
2026-05-04 11:41 42.48768 -7.99917 33078 ft 428 kts 219°
2026-05-04 11:41 42.43899 -8.04553 33081 ft 428 kts 219°
2026-05-04 11:42 42.39032 -8.09176 33082 ft 427 kts 219°
2026-05-04 11:42 42.34164 -8.13792 33081 ft 427 kts 219°
2026-05-04 11:43 42.29325 -8.18370 33067 ft 427 kts 219°
2026-05-04 11:43 42.24454 -8.22973 33065 ft 427 kts 219°
2026-05-04 11:44 42.19562 -8.27582 33068 ft 426 kts 219°
2026-05-04 11:44 42.14734 -8.32111 33064 ft 425 kts 219°
2026-05-04 11:45 42.09875 -8.36670 33039 ft 425 kts 219°
2026-05-04 11:45 42.05023 -8.41214 33076 ft 426 kts 219°
2026-05-04 11:46 42.00160 -8.45766 33084 ft 426 kts 219°
2026-05-04 11:46 41.95300 -8.50300 33091 ft 425 kts 219°
2026-05-04 11:47 41.90435 -8.54834 33094 ft 425 kts 219°
2026-05-04 11:47 41.85571 -8.59349 33080 ft 425 kts 219°
2026-05-04 11:48 41.80867 -8.64100 33094 ft 422 kts 224°
2026-05-04 11:48 41.76398 -8.69186 33098 ft 421 kts 225°
2026-05-04 11:49 41.71926 -8.74264 33086 ft 421 kts 224°
2026-05-04 11:49 41.67400 -8.79253 33104 ft 422 kts 224°
2026-05-04 11:50 41.62847 -8.84204 33083 ft 422 kts 224°
2026-05-04 11:50 41.58291 -8.89148 33097 ft 422 kts 224°
2026-05-04 11:51 41.53748 -8.94095 33106 ft 421 kts 224°
2026-05-04 11:51 41.49199 -8.99042 33124 ft 421 kts 224°
2026-05-04 11:52 41.44652 -9.03965 33124 ft 421 kts 224°
2026-05-04 11:52 41.40095 -9.08884 33108 ft 421 kts 224°
2026-05-04 11:53 41.35545 -9.13802 33114 ft 421 kts 225°
2026-05-04 11:53 41.30996 -9.18723 33121 ft 421 kts 225°
2026-05-04 11:55 41.12747 -9.38287 33120 ft 421 kts 224°
2026-05-04 11:56 41.08181 -9.43159 33129 ft 421 kts 224°
2026-05-04 11:56 41.03649 -9.47993 33120 ft 421 kts 225°
2026-05-04 11:57 40.99079 -9.52862 33123 ft 422 kts 225°
2026-05-04 11:57 40.94471 -9.57751 33085 ft 422 kts 224°
2026-05-04 11:58 40.89916 -9.62579 33093 ft 422 kts 224°
2026-05-04 11:58 40.85298 -9.67470 33111 ft 423 kts 224°
2026-05-04 11:59 40.80732 -9.72287 33126 ft 423 kts 224°
2026-05-04 11:59 40.76128 -9.77134 33135 ft 423 kts 224°
2026-05-04 12:00 40.71525 -9.81978 33141 ft 423 kts 224°
2026-05-04 12:00 40.66925 -9.86820 33109 ft 424 kts 225°
2026-05-04 12:01 40.62310 -9.91668 33117 ft 425 kts 224°
2026-05-04 12:02 40.46088 -10.08611 33107 ft 426 kts 225°
2026-05-04 12:03 40.41445 -10.13433 33125 ft 426 kts 224°
2026-05-04 12:03 40.36789 -10.18254 33135 ft 426 kts 224°
2026-05-04 12:04 40.32131 -10.23077 33134 ft 426 kts 225°
2026-05-04 12:04 40.27478 -10.27897 33142 ft 427 kts 225°
2026-05-04 12:05 40.22819 -10.32709 33146 ft 427 kts 225°
2026-05-04 12:05 40.18146 -10.37519 33151 ft 427 kts 225°
2026-05-04 12:06 40.13474 -10.42320 33154 ft 427 kts 225°
2026-05-04 12:06 40.08803 -10.47115 33157 ft 427 kts 225°
2026-05-04 12:07 40.04131 -10.51914 33154 ft 427 kts 225°
2026-05-04 12:07 39.99454 -10.56696 33156 ft 427 kts 225°
2026-05-04 12:08 39.94778 -10.61483 33131 ft 428 kts 225°
2026-05-04 12:08 39.90097 -10.66268 33134 ft 428 kts 225°
2026-05-04 12:09 39.85402 -10.71047 33146 ft 428 kts 225°
2026-05-04 12:09 39.80705 -10.75817 33158 ft 428 kts 225°
2026-05-04 12:10 39.76003 -10.80569 33163 ft 428 kts 225°
2026-05-04 12:10 39.71296 -10.85324 33139 ft 428 kts 225°
2026-05-04 12:11 39.66593 -10.90087 33153 ft 429 kts 225°
2026-05-04 12:11 39.61894 -10.94845 33136 ft 429 kts 224°
2026-05-04 12:12 39.57175 -10.99589 33149 ft 430 kts 224°
2026-05-04 12:12 39.52446 -11.04336 33156 ft 430 kts 224°
2026-05-04 12:14 39.33555 -11.23253 33174 ft 430 kts 224°
2026-05-04 12:15 39.28812 -11.27974 33176 ft 430 kts 224°
2026-05-04 12:15 39.24075 -11.32686 33119 ft 430 kts 224°
2026-05-04 12:16 39.19333 -11.37404 33134 ft 431 kts 224°
2026-05-04 12:16 39.14576 -11.42114 33149 ft 431 kts 224°
2026-05-04 12:17 39.09816 -11.46821 33164 ft 432 kts 224°
2026-05-04 12:17 39.05046 -11.51525 33171 ft 432 kts 224°
2026-05-04 12:18 39.00272 -11.56223 33144 ft 432 kts 224°
2026-05-04 12:18 38.95500 -11.60918 33156 ft 432 kts 224°
2026-05-04 12:19 38.90731 -11.65619 33166 ft 432 kts 224°
2026-05-04 12:19 38.85957 -11.70311 33178 ft 432 kts 224°
2026-05-04 12:20 38.81171 -11.74994 33180 ft 432 kts 224°
2026-05-04 12:20 38.76385 -11.79664 33183 ft 433 kts 224°
2026-05-04 12:21 38.71597 -11.84334 33168 ft 432 kts 224°
2026-05-04 12:21 38.66812 -11.88996 33169 ft 432 kts 224°
2026-05-04 12:22 38.62028 -11.93661 33181 ft 432 kts 224°
2026-05-04 12:22 38.57239 -11.98308 33186 ft 432 kts 224°
2026-05-04 12:23 38.52445 -12.02948 33181 ft 432 kts 223°
2026-05-04 12:23 38.47648 -12.07585 33150 ft 433 kts 224°
2026-05-04 12:24 38.42876 -12.12189 33169 ft 433 kts 224°
2026-05-04 12:24 38.38072 -12.16819 33180 ft 433 kts 224°
2026-05-04 12:25 38.33263 -12.21455 33186 ft 433 kts 224°
2026-05-04 12:25 38.28451 -12.26083 33191 ft 434 kts 224°
2026-05-04 12:26 38.23637 -12.30699 33163 ft 434 kts 223°
2026-05-04 12:26 38.19599 -12.34571 33180 ft 433 kts 223°
2026-05-04 12:27 38.14785 -12.39185 33193 ft 433 kts 223°
2026-05-04 12:27 38.09961 -12.43780 33178 ft 434 kts 223°
2026-05-04 12:28 38.05128 -12.48373 33186 ft 434 kts 223°
2026-05-04 12:28 38.00297 -12.52972 33193 ft 434 kts 223°
2026-05-04 12:29 37.95468 -12.57568 33176 ft 434 kts 223°
2026-05-04 12:29 37.90635 -12.62154 33191 ft 434 kts 223°
2026-05-04 12:30 37.85794 -12.66731 33198 ft 434 kts 223°
2026-05-04 12:30 37.80986 -12.71268 33206 ft 434 kts 223°
2026-05-04 12:31 37.76146 -12.75833 33205 ft 434 kts 223°
2026-05-04 12:31 37.71311 -12.80392 33200 ft 434 kts 223°
2026-05-04 12:32 37.64044 -12.87215 33199 ft 434 kts 223°
2026-05-04 12:33 37.59203 -12.91768 33207 ft 434 kts 223°
2026-05-04 12:33 37.54354 -12.96308 33205 ft 434 kts 223°
2026-05-04 12:34 37.49501 -13.00832 33203 ft 434 kts 223°
2026-05-04 12:34 37.44656 -13.05360 33181 ft 434 kts 223°
2026-05-04 12:35 37.39811 -13.09879 33203 ft 433 kts 223°
2026-05-04 12:35 37.34964 -13.14388 33190 ft 433 kts 222°
2026-05-04 12:36 37.30117 -13.18879 33207 ft 433 kts 222°
2026-05-04 12:36 37.25277 -13.23372 33210 ft 433 kts 222°
2026-05-04 12:37 37.20439 -13.27864 33215 ft 433 kts 222°
2026-05-04 12:37 37.15593 -13.32336 33199 ft 432 kts 221°
2026-05-04 12:38 37.10778 -13.36765 33207 ft 432 kts 221°
2026-05-04 12:38 37.05942 -13.41220 33213 ft 432 kts 221°
2026-05-04 12:39 37.01110 -13.45681 33216 ft 432 kts 221°
2026-05-04 12:39 36.96276 -13.50128 33204 ft 431 kts 221°
2026-05-04 12:40 36.91433 -13.54555 33196 ft 431 kts 220°
2026-05-04 12:40 36.86596 -13.58973 33212 ft 430 kts 221°
2026-05-04 12:41 36.81766 -13.63386 33215 ft 430 kts 221°
2026-05-04 12:41 36.76933 -13.67780 33214 ft 430 kts 219°
2026-05-04 12:42 36.71896 -13.71849 33211 ft 432 kts 216°
2026-05-04 12:42 36.66720 -13.75678 33198 ft 433 kts 215°
2026-05-04 12:43 36.61554 -13.79504 33214 ft 432 kts 216°
2026-05-04 12:43 36.56428 -13.83399 33215 ft 431 kts 216°
2026-05-04 12:44 36.51317 -13.87309 33202 ft 431 kts 216°
2026-05-04 12:44 36.46205 -13.91214 33221 ft 431 kts 216°
2026-05-04 12:45 36.41095 -13.95096 33194 ft 431 kts 216°
2026-05-04 12:45 36.35984 -13.98955 33218 ft 429 kts 217°
2026-05-04 12:46 36.30899 -14.02801 33227 ft 427 kts 217°
2026-05-04 12:46 36.25830 -14.06642 33226 ft 427 kts 217°
2026-05-04 12:47 36.20761 -14.10462 33228 ft 426 kts 217°
2026-05-04 12:47 36.15700 -14.14273 33224 ft 426 kts 217°
2026-05-04 12:48 36.10642 -14.18069 33220 ft 425 kts 218°
2026-05-04 12:48 36.05636 -14.21826 33217 ft 423 kts 218°
2026-05-04 12:49 36.00608 -14.25607 33226 ft 422 kts 218°
2026-05-04 12:49 35.95584 -14.29367 33225 ft 422 kts 218°
2026-05-04 12:50 35.90562 -14.33118 33220 ft 422 kts 218°
2026-05-04 12:50 35.85552 -14.36866 33198 ft 421 kts 218°
2026-05-04 12:51 35.80545 -14.40595 33212 ft 421 kts 218°
2026-05-04 12:51 35.75535 -14.44329 33216 ft 420 kts 218°
2026-05-04 12:52 35.70526 -14.48042 33217 ft 420 kts 217°
2026-05-04 12:52 35.65515 -14.51754 33217 ft 420 kts 217°
2026-05-04 12:53 35.60507 -14.55471 33190 ft 420 kts 217°
2026-05-04 12:53 35.55498 -14.59175 33191 ft 420 kts 217°
2026-05-04 12:54 35.50485 -14.62871 33203 ft 421 kts 217°
2026-05-04 12:54 35.45470 -14.66570 33208 ft 421 kts 217°
2026-05-04 12:55 35.40454 -14.70270 33205 ft 421 kts 217°
2026-05-04 12:55 35.35432 -14.73953 33209 ft 421 kts 217°
2026-05-04 12:56 35.30407 -14.77636 33184 ft 421 kts 217°
2026-05-04 12:56 35.25389 -14.81323 33196 ft 421 kts 217°
2026-05-04 12:57 35.20371 -14.85005 33202 ft 421 kts 217°
2026-05-04 12:57 35.15346 -14.88682 33206 ft 421 kts 217°
2026-05-04 12:58 35.10317 -14.92346 33206 ft 421 kts 217°
2026-05-04 12:58 35.05286 -14.96006 33207 ft 421 kts 217°
2026-05-04 12:59 35.00258 -14.99664 33206 ft 421 kts 217°
2026-05-04 12:59 34.95230 -15.03324 33208 ft 421 kts 217°
2026-05-04 13:00 34.90197 -15.06977 33205 ft 421 kts 217°
2026-05-04 13:00 34.85168 -15.10626 33206 ft 421 kts 217°
2026-05-04 13:01 34.80234 -15.14195 33189 ft 398 kts 217°
2026-05-04 13:01 34.77894 -15.15866 33182 ft 382 kts 217°
2026-05-04 13:01 34.75642 -15.17457 33185 ft 369 kts 217°
2026-05-04 13:02 34.71157 -15.20617 33190 ft 379 kts 217°
2026-05-04 13:02 34.66515 -15.23919 32711 ft 395 kts 217°
2026-05-04 13:02 34.64111 -15.25646 31593 ft 408 kts 217°
2026-05-04 13:03 34.61639 -15.27437 30457 ft 419 kts 217°
2026-05-04 13:03 34.59117 -15.29281 29407 ft 426 kts 217°
2026-05-04 13:03 34.56588 -15.31149 28605 ft 425 kts 217°
2026-05-04 13:03 34.54077 -15.33021 27904 ft 423 kts 217°
2026-05-04 13:04 34.51589 -15.34892 27215 ft 420 kts 217°
2026-05-04 13:04 34.49127 -15.36773 26584 ft 417 kts 217°
2026-05-04 13:04 34.46680 -15.38656 26180 ft 417 kts 217°
2026-05-04 13:04 34.44265 -15.40524 25798 ft 417 kts 217°
2026-05-04 13:05 34.41830 -15.42415 25415 ft 415 kts 217°
2026-05-04 13:05 34.39369 -15.44331 25033 ft 414 kts 217°
2026-05-04 13:05 34.36982 -15.46182 24680 ft 413 kts 216°
2026-05-04 13:05 34.34558 -15.48034 24326 ft 412 kts 216°
2026-05-04 13:06 34.32099 -15.49892 23984 ft 410 kts 216°
2026-05-04 13:06 34.29677 -15.51716 23622 ft 409 kts 216°
2026-05-04 13:06 34.27269 -15.53530 23210 ft 408 kts 216°
2026-05-04 13:06 34.24864 -15.55345 22812 ft 406 kts 216°
2026-05-04 13:07 34.22481 -15.57152 22400 ft 404 kts 215°
2026-05-04 13:07 34.20110 -15.58962 22016 ft 402 kts 215°
2026-05-04 13:07 34.17755 -15.60757 21629 ft 400 kts 215°
2026-05-04 13:07 34.15400 -15.62546 21251 ft 399 kts 215°
2026-05-04 13:08 34.13054 -15.64320 20869 ft 397 kts 214°
2026-05-04 13:08 34.10718 -15.66082 20497 ft 396 kts 214°
2026-05-04 13:08 34.08415 -15.67819 20154 ft 394 kts 214°
2026-05-04 13:08 34.06064 -15.69593 19865 ft 393 kts 214°
2026-05-04 13:09 34.03752 -15.71337 19579 ft 392 kts 215°
2026-05-04 13:09 34.01443 -15.73077 19287 ft 391 kts 214°
2026-05-04 13:09 33.99143 -15.74808 19007 ft 389 kts 214°
2026-05-04 13:09 33.96853 -15.76532 18735 ft 388 kts 213°
2026-05-04 13:10 33.95341 -15.77668 18542 ft 386 kts 214°
2026-05-04 13:10 33.92304 -15.79948 18128 ft 383 kts 215°
2026-05-04 13:10 33.90083 -15.81619 17818 ft 381 kts 214°
2026-05-04 13:10 33.87840 -15.83308 17500 ft 380 kts 214°
2026-05-04 13:11 33.85601 -15.84992 17185 ft 379 kts 215°
2026-05-04 13:11 33.83378 -15.86660 16877 ft 376 kts 214°
2026-05-04 13:11 33.81157 -15.88324 16577 ft 376 kts 213°
2026-05-04 13:11 33.78927 -15.89968 16281 ft 375 kts 213°
2026-05-04 13:12 33.76711 -15.91610 15998 ft 374 kts 214°
2026-05-04 13:12 33.74505 -15.93260 15747 ft 373 kts 213°
2026-05-04 13:12 33.72306 -15.94913 15502 ft 373 kts 213°
2026-05-04 13:12 33.70820 -15.96031 15336 ft 372 kts 214°
2026-05-04 13:13 33.68627 -15.97678 15094 ft 372 kts 213°
2026-05-04 13:13 33.66436 -15.99318 14843 ft 371 kts 213°
2026-05-04 13:13 33.64279 -16.00928 14610 ft 368 kts 213°
2026-05-04 13:13 33.62106 -16.02545 14373 ft 366 kts 213°
2026-05-04 13:14 33.59948 -16.04150 14135 ft 365 kts 213°
2026-05-04 13:14 33.57790 -16.05755 13899 ft 365 kts 214°
2026-05-04 13:14 33.55638 -16.07359 13628 ft 363 kts 214°
2026-05-04 13:14 33.53496 -16.08957 13366 ft 361 kts 214°
2026-05-04 13:15 33.51365 -16.10545 13107 ft 360 kts 215°
2026-05-04 13:15 33.49247 -16.12120 12850 ft 357 kts 214°
2026-05-04 13:15 33.47165 -16.13667 12590 ft 345 kts 214°
2026-05-04 13:15 33.45164 -16.15150 12325 ft 333 kts 213°
2026-05-04 13:16 33.43228 -16.16581 12083 ft 320 kts 213°
2026-05-04 13:16 33.41390 -16.17937 11837 ft 302 kts 214°
2026-05-04 13:16 33.39646 -16.19226 11578 ft 292 kts 213°
2026-05-04 13:16 33.37914 -16.20508 11332 ft 292 kts 213°
2026-05-04 13:17 33.36189 -16.21786 11089 ft 291 kts 213°
2026-05-04 13:17 33.34469 -16.23062 10846 ft 290 kts 213°
2026-05-04 13:17 33.32755 -16.24334 10602 ft 289 kts 213°
2026-05-04 13:17 33.31050 -16.25597 10370 ft 288 kts 213°
2026-05-04 13:18 33.29352 -16.26853 10130 ft 286 kts 213°
2026-05-04 13:18 33.27662 -16.28103 9913 ft 284 kts 213°
2026-05-04 13:18 33.25980 -16.29346 9787 ft 284 kts 213°
2026-05-04 13:18 33.24299 -16.30589 9657 ft 284 kts 213°
2026-05-04 13:19 33.22618 -16.31830 9524 ft 284 kts 213°
2026-05-04 13:19 33.20939 -16.33069 9394 ft 283 kts 212°
2026-05-04 13:19 33.19266 -16.34302 9265 ft 283 kts 213°
2026-05-04 13:19 33.17594 -16.35532 9135 ft 282 kts 212°
2026-05-04 13:20 33.15919 -16.36763 9007 ft 282 kts 212°
2026-05-04 13:20 33.14250 -16.37990 8879 ft 282 kts 212°
2026-05-04 13:20 33.12584 -16.39215 8752 ft 281 kts 212°
2026-05-04 13:20 33.10918 -16.40437 8622 ft 281 kts 212°
2026-05-04 13:21 33.09258 -16.41658 8495 ft 280 kts 212°
2026-05-04 13:21 33.07603 -16.42876 8373 ft 279 kts 212°
2026-05-04 13:21 33.05949 -16.44092 8245 ft 279 kts 212°
2026-05-04 13:21 33.04299 -16.45306 8121 ft 278 kts 212°
2026-05-04 13:22 33.02652 -16.46515 7991 ft 278 kts 212°
2026-05-04 13:22 33.01005 -16.47721 7874 ft 278 kts 212°
2026-05-04 13:22 32.99359 -16.48926 7750 ft 277 kts 212°
2026-05-04 13:22 32.97719 -16.50130 7579 ft 277 kts 212°
2026-05-04 13:23 32.96086 -16.51330 7262 ft 275 kts 212°
2026-05-04 13:23 32.94460 -16.52522 6915 ft 273 kts 212°
2026-05-04 13:23 32.92845 -16.53703 6556 ft 272 kts 212°
2026-05-04 13:23 32.91235 -16.54877 6187 ft 270 kts 211°
2026-05-04 13:24 32.89641 -16.56040 5830 ft 268 kts 211°
2026-05-04 13:24 32.88056 -16.57199 5481 ft 264 kts 211°
2026-05-04 13:24 32.86516 -16.58325 5142 ft 256 kts 211°
2026-05-04 13:25 32.83602 -16.60559 4478 ft 242 kts 214°
2026-05-04 13:25 32.82249 -16.61687 4166 ft 233 kts 215°
2026-05-04 13:25 32.80952 -16.62779 3870 ft 223 kts 215°
2026-05-04 13:25 32.79714 -16.63820 3577 ft 214 kts 215°
2026-05-04 13:26 32.78523 -16.64817 3314 ft 205 kts 215°
2026-05-04 13:26 32.77355 -16.65791 3038 ft 204 kts 214°
2026-05-04 13:26 32.76215 -16.66739 2638 ft 196 kts 214°
2026-05-04 13:26 32.75119 -16.67648 2131 ft 188 kts 214°
2026-05-04 13:27 32.74072 -16.68534 1641 ft 182 kts 218°
2026-05-04 13:27 32.73277 -16.69631 1392 ft 167 kts 241°
2026-05-04 13:27 32.72857 -16.70890 1366 ft 164 kts 250°
2026-05-04 13:27 32.72725 -16.72182 1271 ft 155 kts 266°
2026-05-04 13:28 32.72604 -16.73426 1020 ft 150 kts 253°
2026-05-04 13:28 32.72205 -16.74576 647 ft 150 kts 233°
2026-05-04 13:28 32.71501 -16.75455 432 ft 146 kts 219°
2026-05-04 13:28 32.70771 -16.76300 287 ft 148 kts 223°
2026-05-04 13:29 32.70066 -16.77129 202 ft 130 kts 221°
2026-05-04 13:29 32.69597 -16.77669 176 ft 60 kts 224°
2026-05-04 13:29 32.69389 -16.77915 170 ft 23 kts 224°
2026-05-04 13:29 32.69307 -16.77957 169 ft 12 kts 159°
2026-05-04 13:30 32.69289 -16.77880 169 ft 10 kts 82°
2026-05-04 13:30 32.69328 -16.77809 169 ft 11 kts 46°
2026-05-04 13:30 32.69360 -16.77769 169 ft 3 kts 46°
2026-05-04 13:30 32.69372 -16.77750 169 ft 1 kts 70°
2026-05-04 13:31 32.69368 -16.77738 169 ft 2 kts 110°
2026-05-04 13:31 32.69356 -16.77720 169 ft 3 kts 133°
2026-05-04 13:31 32.69341 -16.77703 169 ft 2 kts 136°
2026-05-04 13:31 32.69334 -16.77695 169 ft 0 kts 137°